Location: Enamadala
(16.7877°N, 80.8019°E)
Time: 05:28:31
(UTC+00:00)

Daily predictions for brighter satellites

Satellite Brightness Start Highest point End
(mag) Time Altitude Azimuth Time Altitude Azimuth Time Altitude Azimuth
GPS 2-12 Rocket1 3.8 00:01:24 16° W 00:04:46 42° SSW 00:09:04 10° SE
SL-16 R/B 4.4 00:01:52 10° NNE 00:06:23 24° ENE 00:10:54 10° ESE
Cosmos 1814 Rocket 3.9 00:02:14 10° SSW 00:07:19 63° WNW 00:12:30 10° N
GPS 2-15 Rocket1 3.0 00:06:00 11° WSW 00:10:27 83° SSE 00:15:00 10° E
Centaur AC-72 3.8 00:05:22 11° W 00:10:58 35° SSW 00:17:30 10° SE
Cosmos 2026 Rocket 4.1 00:05:19 10° SSW 00:11:06 48° W 00:16:54 10° N
IGS 5A 3.7 00:09:36 10° NNE 00:13:35 71° E 00:17:33 10° S
Cosmos 2058 Rocket 4.4 00:10:54 10° NNE 00:15:02 41° E 00:19:08 10° SSE
Cosmos 1933 4.0 00:14:45 10° NNW 00:18:06 30° W 00:21:28 10° SSW
Cosmos 1743 4.0 00:17:07 10° SSE 00:20:06 36° E 00:23:05 10° NNE
Cosmos 1484 Rocket 2.4 00:19:08 10° N 00:22:25 55° WNW 00:25:41 10° SSW
Cosmos 1980 Rocket 3.2 00:22:09 10° NW 00:26:43 26° WSW 00:31:18 10° SSW
Helios 1A Rocket 2.8 00:23:44 10° SSE 00:27:01 65° ENE 00:30:19 10° N
Stardust Del rocket 2.2 00:24:01 10° WSW 00:27:07 87° SSE 00:29:26 10° ENE
CBERS-1 4.0 00:24:18 10° N 00:29:22 80° WNW 00:34:26 10° SSW
Cosmos 1606 Rocket 4.5 00:26:32 10° NNW 00:30:17 28° W 00:34:01 10° SSW
Cosmos 1758 Rocket 3.5 00:29:09 10° S 00:33:35 79° W 00:38:00 10° N
Cosmos 2151 3.9 00:30:46 10° S 00:34:42 51° E 00:38:39 10° NNE
Cosmos 2369 4.0 00:30:20 10° NNW 00:35:42 47° WSW 00:41:04 10° S
IRIDIUM 106 4.4 00:32:17 10° S 00:37:30 86° W 00:42:43 10° N
